[[{"header":{"parameterUnit":"m.s-1","parameterCategory":1,"la1":30.2991,"la2":30.254,"lo1":-89.0895,"lo2":-89.0444,"dy":0.0017,"dx":0.0017,"nx":28,"ny":28,"refTime":"2026-01-29T09:00:00:Z","depth":0,"parameterNumber":2,"parameterNumberName":"U-component_of_WINDS"},"data":[0,0,0,0,0,0,0,0,0,0,0,0,0,0,0,0,0,0,0,0,0,0,0,0,0,0,0,0,0,0,0,0,0,0,0,0,0,0,0,0,0,0,0,0,0,0,0,0,0,0,0,0,0,0,0,0,0,0,0.3509,0.3509,0,0.3439,0.3438,0.3437,0.3375,0.3375,0.3374,0.3373,0.3299,0.3298,0.3297,0,0,0,0,0,0,0,0,0,0,0,0,0,0.3588,0.3587,0.3509,0.3508,0.3508,0.3439,0.3438,0.3437,0.3376,0.3375,0.3374,0.3373,0.33,0.3298,0.3297,0,0,0,0,0,0,0,0,0,0,0,0,0,0.3539,0.3587,0.351,0.3469,0.3464,0.3439,0.3438,0.3437,0.3376,0.3375,0.3374,0.3373,0.33,0.3298,0.3296,0.3305,0,0,0.329,0.329,0,0,0,0,0,0,0,0,0.3542,0.3537,0.3476,0.3472,0.3467,0.3415,0.3438,0.3393,0.3376,0.3409,0.3373,0.3372,0.3339,0.3333,0.3322,0.3302,0.3299,0.329,0.3289,0.3288,0.3288,0,0,0,0,0,0,0,0.3546,0.3539,0.3481,0.3475,0.3469,0.3453,0.3445,0.343,0.3381,0.3406,0.3402,0.3394,0.3336,0.3324,0.332,0.3298,0.329,0.3289,0.3287,0.3287,0.3279,0.328,0,0,0,0,0,0,0.3556,0.3543,0.3484,0.3479,0.3503,0.3453,0.3443,0.3433,0.3381,0.3372,0.3395,0.3392,0.3328,0.3323,0.3317,0.3323,0.3288,0.3286,0.3285,0.3278,0.3279,0.328,0,0,0,0,0,0,0.3558,0.3551,0.3486,0.351,0.35,0.3452,0.344,0.3432,0.342,0.3372,0.3363,0.3393,0.3327,0.332,0.3308,0.332,0.3285,0.3284,0.3277,0.3278,0.328,0.3336,0,0,0,0,0,0,0.356,0.3552,0.3556,0.351,0.3499,0.348,0.3441,0.3431,0.3417,0.3412,0.3368,0.3359,0.3326,0.3312,0.3307,0.3317,0.3282,0.3276,0.3278,0.3279,0.3333,0.3339,0.3345,0,0,0,0,0,0.3563,0.3574,0.3556,0.355,0.3503,0.3481,0.3474,0.3436,0.3418,0.3421,0.339,0.3361,0.332,0.3311,0.3305,0.3314,0.3275,0.3277,0.3279,0.3331,0.3338,0.3345,0,0,0,0,0,0,0.3622,0.3568,0.3547,0.3544,0.3518,0.347,0.3473,0.3446,0.3424,0.3419,0.3373,0.3363,0.3356,0.3334,0.3326,0.3319,0.3293,0.3294,0.3334,0.3341,0.3347,0.3352,0.328,0,0,0,0,0,0.3635,0.3622,0.3575,0.3577,0.3565,0.3521,0.351,0.3483,0.3453,0.3442,0.341,0.3382,0.3362,0.335,0.333,0.3329,0.3318,0.3333,0.3339,0.3344,0.3345,0.3342,0.3347,0.3288,0.3288,0.3287,0,0,0.3661,0.363,0.3624,0.3588,0.3564,0.3551,0.3512,0.35,0.349,0.344,0.3427,0.3402,0.3368,0.3362,0.3357,0.3343,0.3359,0.3347,0.3351,0.3349,0.3345,0.335,0.3356,0.3289,0.3289,0.3289,0,0,0.3702,0.3677,0.3675,0.3652,0.3617,0.3588,0.3588,0.3544,0.3526,0.3513,0.3474,0.3461,0.3429,0.3405,0.3389,0.342,0.3391,0.3414,0.3445,0.3442,0.3447,0.3451,0.3461,0.3465,0.3416,0.3416,0.3416,0,0.3738,0.3718,0.3678,0.3668,0.3653,0.3607,0.3604,0.3583,0.3543,0.3533,0.3518,0.3475,0.3449,0.3436,0.3443,0.3432,0.3429,0.3419,0.345,0.3453,0.3456,0.3465,0.347,0.3419,0.3419,0.3418,0.3418,0,0.3764,0.3751,0.3754,0.3716,0.3701,0.3695,0.3653,0.3642,0.3616,0.3588,0.3574,0.354,0.3512,0.3507,0.3481,0.349,0.3482,0.3459,0.3431,0.3466,0.3473,0.3477,0.3423,0.3422,0.3421,0.3421,0,0,0.3841,0.3781,0.3782,0.3764,0.3721,0.371,0.3701,0.3673,0.3665,0.3638,0.3629,0.3602,0.358,0.3562,0.3533,0.3531,0.3556,0.3508,0.3506,0.3517,0.3562,0.358,0.3585,0.3537,0.3538,0.3538,0.3565,0,0.3874,0.3856,0.3819,0.3813,0.3799,0.3755,0.3747,0.372,0.3693,0.3677,0.3647,0.3629,0.3602,0.359,0.3586,0.3554,0.3565,0.3552,0.3527,0.3527,0.3537,0.3589,0.3607,0.3634,0.3568,0.3568,0.3569,0,0.3911,0.3887,0.388,0.3837,0.3829,0.3823,0.3794,0.378,0.3747,0.3728,0.3707,0.3675,0.3662,0.3637,0.3618,0.361,0.3598,0.358,0.3581,0.3577,0.355,0.3586,0.3642,0.3646,0.3573,0.3573,0.3573,0,0.3966,0.3932,0.3923,0.3909,0.3859,0.3856,0.3835,0.3801,0.3786,0.3761,0.3751,0.3724,0.3709,0.3689,0.365,0.3636,0.3635,0.3607,0.3617,0.3619,0.3619,0.362,0.3674,0.3612,0.3612,0.3612,0.3612,0,0.4007,0.4004,0.3947,0.3942,0.3937,0.3894,0.3889,0.3864,0.3834,0.3822,0.3782,0.3771,0.3721,0.3704,0.3674,0.3662,0.3655,0.3639,0.3631,0.3642,0.3644,0.3633,0.363,0.3613,0.3613,0.3613,0.3612,0,0.4068,0.403,0.4017,0.3971,0.3959,0.3957,0.3917,0.3909,0.388,0.3865,0.3859,0.3813,0.3791,0.375,0.3717,0.3696,0.369,0.3677,0.3702,0.3697,0.371,0.3709,0.3758,0.3762,0.3699,0.37,0.37,0,0.4096,0.4093,0.4046,0.4036,0.4016,0.3999,0.3984,0.3941,0.3927,0.3889,0.3886,0.386,0.3838,0.3804,0.3767,0.3741,0.3726,0.3745,0.3722,0.3733,0.3725,0.3726,0.3725,0.3751,0.3751,0.3752,0.3753,0,0.415,0.4132,0.4112,0.4086,0.4069,0.4046,0.4021,0.4014,0.3965,0.3951,0.3928,0.3911,0.3876,0.3851,0.3819,0.3796,0.3766,0.376,0.3761,0.3773,0.3787,0.3779,0.3716,0.3759,0.3759,0.3758,0.3758,0.3758,0.4195,0.419,0.4156,0.4135,0.4112,0.4089,0.4079,0.4049,0.4029,0.3998,0.3974,0.3953,0.3918,0.3873,0.3851,0.3833,0.3819,0.3821,0.3821,0.3822,0.3826,0.3791,0.3827,0.3827,0.3827,0.3827,0.3826,0,0.4246,0.4222,0.4204,0.417,0.4153,0.4127,0.4097,0.4085,0.4067,0.4038,0.4017,0.399,0.3965,0.3926,0.3898,0.3891,0.3876,0.3885,0.3885,0.388,0.3841,0.3843,0.3897,0.3897,0.3897,0.3897,0.3897,0.3897,0.4271,0.426,0.4237,0.4214,0.419,0.4169,0.4154,0.4133,0.4109,0.4081,0.4061,0.4036,0.4002,0.3972,0.3947,0.3936,0.3927,0.394,0.3925,0.3889,0.3883,0.3876,0.3878,0.3939,0.3939,0.3965,0.3966,0.3966]},{"header":{"parameterUnit":"m.s-1","parameterCategory":1,"la1":30.2991,"la2":30.254,"lo1":-89.0895,"lo2":-89.0444,"dy":0.0017,"dx":0.0017,"nx":28,"ny":28,"refTime":"2026-01-29T09:00:00:Z","depth":0,"parameterNumber":3,"parameterNumberName":"V-component_of_WINDS"},"data":[0,0,0,0,0,0,0,0,0,0,0,0,0,0,0,0,0,0,0,0,0,0,0,0,0,0,0,0,0,0,0,0,0,0,0,0,0,0,0,0,0,0,0,0,0,0,0,0,0,0,0,0,0,0,0,0,0,0,2.4453,2.4453,0,2.4458,2.4458,2.4458,2.4416,2.4415,2.4414,2.4413,2.4416,2.4417,2.4418,0,0,0,0,0,0,0,0,0,0,0,0,0,2.4409,2.441,2.4453,2.4453,2.4453,2.4458,2.4458,2.4458,2.4416,2.4415,2.4413,2.4412,2.4416,2.4417,2.4418,0,0,0,0,0,0,0,0,0,0,0,0,0,2.4423,2.4411,2.4453,2.4433,2.4431,2.4458,2.4458,2.4458,2.4416,2.4415,2.4413,2.4411,2.4415,2.4417,2.4419,2.4464,0,0,2.4424,2.4425,0,0,0,0,0,0,0,0,2.4422,2.4424,2.4436,2.4435,2.4433,2.4434,2.4443,2.446,2.4417,2.4422,2.4413,2.4411,2.4424,2.4424,2.4429,2.4464,2.4464,2.4424,2.4425,2.4426,2.4426,0,0,0,0,0,0,0,2.4421,2.4424,2.4455,2.4436,2.4434,2.4424,2.4424,2.4446,2.4432,2.4422,2.4418,2.442,2.4422,2.4427,2.4429,2.4464,2.4424,2.4426,2.4427,2.4427,2.4538,2.454,0,0,0,0,0,0,2.4423,2.4423,2.4455,2.4455,2.4423,2.4426,2.4426,2.4436,2.4432,2.443,2.4421,2.4418,2.4425,2.4427,2.4429,2.4482,2.4426,2.4428,2.4429,2.4536,2.4538,2.454,0,0,0,0,0,0,2.4422,2.4426,2.4455,2.4438,2.4441,2.4429,2.444,2.4437,2.4442,2.4432,2.4429,2.4429,2.4424,2.4426,2.4456,2.4481,2.4428,2.443,2.4534,2.4537,2.4539,2.4588,0,0,0,0,0,0,2.4421,2.4426,2.4443,2.4439,2.4442,2.4481,2.4441,2.4438,2.4445,2.4441,2.4438,2.4436,2.4423,2.4453,2.4458,2.4483,2.4431,2.4531,2.4535,2.4538,2.4584,2.4592,2.4599,0,0,0,0,0,2.442,2.4456,2.4444,2.4448,2.4463,2.4483,2.4485,2.4469,2.4447,2.4464,2.4458,2.4436,2.4478,2.4457,2.4461,2.4487,2.453,2.4534,2.4538,2.4581,2.4591,2.4599,0,0,0,0,0,0,2.4462,2.4455,2.4441,2.4478,2.4481,2.4476,2.4496,2.448,2.4489,2.4485,2.4464,2.4464,2.4497,2.4495,2.4471,2.4532,2.45,2.4505,2.4531,2.4541,2.4548,2.4547,2.4433,0,0,0,0,0,2.4476,2.4493,2.4486,2.4518,2.4521,2.4509,2.4517,2.4505,2.4507,2.4508,2.4504,2.4508,2.4522,2.4531,2.4543,2.4584,2.4583,2.4605,2.4612,2.4619,2.4623,2.4645,2.4654,2.4554,2.4554,2.4554,0,0,2.4504,2.4502,2.4514,2.4527,2.4528,2.4546,2.451,2.453,2.4544,2.4511,2.4539,2.4537,2.4539,2.4575,2.459,2.4574,2.4651,2.4624,2.4629,2.463,2.465,2.466,2.4668,2.4557,2.4557,2.4556,0,0,2.4564,2.4565,2.4592,2.4595,2.4598,2.459,2.4597,2.4595,2.4592,2.462,2.4596,2.4612,2.4636,2.4639,2.4644,2.4708,2.4689,2.4713,2.4752,2.4774,2.4782,2.4788,2.4811,2.482,2.4718,2.4718,2.4718,0,2.4598,2.4624,2.4608,2.4631,2.4638,2.4611,2.4639,2.4642,2.4649,2.4654,2.4636,2.4667,2.4667,2.4703,2.4719,2.4724,2.4731,2.4712,2.4782,2.4789,2.4795,2.4816,2.4825,2.4721,2.472,2.472,2.472,0,2.4667,2.4686,2.4708,2.4716,2.4725,2.475,2.4738,2.475,2.4738,2.4732,2.4761,2.476,2.4772,2.478,2.4768,2.4815,2.4805,2.4785,2.4753,2.4807,2.4827,2.4835,2.4725,2.4724,2.4723,2.4722,0,0,2.4751,2.4752,2.476,2.4764,2.4767,2.4781,2.4806,2.4818,2.4829,2.4835,2.4855,2.4878,2.486,2.4865,2.4853,2.4873,2.4924,2.485,2.485,2.4863,2.4976,2.4991,2.5001,2.4912,2.4913,2.4915,2.4976,0,2.481,2.4852,2.4839,2.4881,2.4899,2.4875,2.4896,2.49,2.4896,2.4911,2.4906,2.4922,2.4897,2.49,2.4919,2.4914,2.4946,2.4909,2.493,2.4931,2.4929,2.5011,2.5026,2.5084,2.4984,2.4985,2.4986,0,2.4883,2.4893,2.4938,2.4939,2.4946,2.4965,2.4976,2.4991,2.4995,2.4991,2.4999,2.4983,2.5008,2.4977,2.5011,2.4986,2.4994,2.4993,2.4995,2.4995,2.4961,2.5013,2.5102,2.511,2.4998,2.4997,2.4996,0,2.494,2.4965,2.4995,2.4999,2.5001,2.5016,2.5017,2.502,2.5029,2.5039,2.5045,2.5058,2.5065,2.5075,2.5064,2.5042,2.5099,2.5067,2.5096,2.5096,2.5108,2.5107,2.5198,2.5115,2.5115,2.5114,2.5114,0,2.5006,2.5033,2.5021,2.5039,2.507,2.5056,2.5087,2.5086,2.5089,2.5107,2.5087,2.5104,2.5089,2.5105,2.5097,2.5126,2.5129,2.5126,2.5123,2.5127,2.5128,2.5131,2.5127,2.5117,2.5116,2.5116,2.5115,0,2.5073,2.5066,2.5097,2.5098,2.5098,2.5121,2.5121,2.5138,2.5134,2.5157,2.5162,2.5154,2.5172,2.5162,2.5181,2.5175,2.5213,2.5205,2.5211,2.5209,2.5238,2.5235,2.5334,2.5346,2.5256,2.5257,2.5257,0,2.5115,2.5136,2.514,2.5151,2.5154,2.5172,2.5181,2.5169,2.518,2.5188,2.5204,2.5221,2.5233,2.5263,2.5259,2.5273,2.5265,2.5299,2.5267,2.527,2.5265,2.5263,2.5265,2.5305,2.5306,2.5307,2.5307,0,2.519,2.5186,2.5201,2.5215,2.5227,2.5238,2.5246,2.5256,2.5244,2.5258,2.5276,2.5286,2.5306,2.5322,2.5335,2.5336,2.532,2.5318,2.5325,2.5329,2.5331,2.533,2.5228,2.5315,2.5314,2.5314,2.5313,2.5313,2.5246,2.5264,2.527,2.5287,2.5293,2.5302,2.5318,2.5317,2.5332,2.5347,2.534,2.5361,2.5367,2.5383,2.5387,2.5403,2.539,2.54,2.5403,2.5405,2.5409,2.533,2.5406,2.5406,2.5405,2.5405,2.5405,0,2.532,2.5323,2.5339,2.5353,2.5367,2.5352,2.5361,2.5374,2.5393,2.54,2.5414,2.5436,2.5452,2.5451,2.5466,2.548,2.5473,2.5484,2.5482,2.5483,2.5421,2.5413,2.549,2.549,2.549,2.549,2.549,2.549,2.536,2.539,2.5387,2.542,2.5423,2.5444,2.5451,2.546,2.5465,2.5491,2.5505,2.5504,2.5508,2.5524,2.5539,2.5538,2.5544,2.5558,2.5554,2.5496,2.5487,2.5479,2.5472,2.556,2.556,2.5615,2.5616,2.5616]}]]